Hillsdale, MI

2:54 PM EDT on April 25, 2017 (GMT -0400)
Hillsdale Municipal

Weather History for KJYM - November, 2013

Change the Weather History Date:

Wednesday, November 27, 2013

  Actual Average Record
Temperature  
Mean Temperature 22 °F -  
Max Temperature 29 °F 45 °F 63 °F (1990)
Min Temperature 16 °F 28 °F 8 °F (1977)
Degree Days  
Heating Degree Days 42    
Moisture  
Dew Point 13 °F    
Average Humidity 65    
Maximum Humidity 85    
Minimum Humidity 47    
Precipitation  
Precipitation 0.00 in - - ()
Sea Level Pressure  
Sea Level Pressure 30.01 in    
Wind  
Wind Speed 12 mph (NNW)    
Max Wind Speed 21 mph    
Max Gust Speed 30 mph    
Visibility 10 miles    
Events Snow    
Averages and records for this station are not official NWS values.
T = Trace of Precipitation, MM = Missing Value Source: NWS Daily Summary

Daily Weather History Graph

Daily Weather History Graph

Search for Another Location

Airport or City:

Trip Planner

Search our weather history database for the weather conditions in past years. The results will help you decide how hot, cold, wet, or windy it might be!

Date:

Astronomy

Nov. 27, 2013 Rise Set
Actual Time 7:42 AM EST 5:09 PM EST
Civil Twilight 7:11 AM EST 5:40 PM EST
Nautical Twilight 6:37 AM EST 6:14 PM EST
Astronomical Twilight 6:03 AM EST 6:48 PM EST
Moon 1:38 AM EST (11/27) 1:51 PM EST (11/27)
Length of Visible Light 10h 28m
Length of Day
9h 26m
Waning Crescent, 32% of the Moon is Illuminated
Nov 27
Waning Crescent
Dec 2
New
Dec 9
First Quarter
Dec 17
Full
Dec 25
Last Quarter

Hourly Weather History & Observations

Time (EST) Temp. Windchill Dew Point Humidity Pressure Visibility Wind Dir Wind Speed Gust Speed Precip Events Conditions
12:15 AM 24.4 °F 14.2 °F 18.7 °F 79% 29.93 in 10.0 mi NW 10.4 mph - N/A   Scattered Clouds
12:34 AM 24.1 °F 14.4 °F 18.5 °F 79% 29.93 in 10.0 mi NW 9.2 mph - N/A   Clear
12:55 AM 23.5 °F 13.0 °F 18.7 °F 82% 29.92 in 10.0 mi NW 10.4 mph - N/A   Clear
1:15 AM 23.4 °F 11.6 °F 18.7 °F 82% 29.91 in 10.0 mi NNW 12.7 mph - N/A   Scattered Clouds
1:34 AM 24.6 °F 13.2 °F 19.9 °F 82% 29.91 in 10.0 mi NNW 12.7 mph - N/A   Mostly Cloudy
1:55 AM 25.2 °F 13.3 °F 20.1 °F 81% 29.91 in 10.0 mi NNW 13.8 mph 18.4 mph N/A   Overcast
2:14 AM 25.2 °F 12.0 °F 20.1 °F 81% 29.91 in 10.0 mi NNW 17.3 mph 20.7 mph N/A   Overcast
2:34 AM 25.2 °F 13.9 °F 20.7 °F 83% 29.91 in 10.0 mi NNW 12.7 mph 18.4 mph N/A Snow Light Snow
2:55 AM 25.2 °F 13.3 °F 21.2 °F 85% 29.92 in 4.0 mi NNW 13.8 mph 20.7 mph N/A Snow Light Snow
3:14 AM 25.2 °F 12.4 °F 20.8 °F 84% 29.92 in 7.0 mi NNW 16.1 mph 24.2 mph N/A Snow Light Snow
3:34 AM 24.6 °F 12.7 °F 19.9 °F 82% 29.93 in 10.0 mi NNW 13.8 mph 20.7 mph N/A Snow Light Snow
3:55 AM 24.3 °F 10.4 °F 18.1 °F 77% 29.93 in 10.0 mi North 18.4 mph 26.5 mph N/A   Overcast
4:14 AM 23.7 °F 12.1 °F 16.2 °F 73% 29.93 in 10.0 mi North 12.7 mph 19.6 mph N/A   Overcast
4:35 AM 23.4 °F 11.1 °F 15.1 °F 71% 29.94 in 10.0 mi North 13.8 mph 26.5 mph N/A   Overcast
4:55 AM 23.4 °F 12.8 °F 15.3 °F 71% 29.95 in 10.0 mi North 10.4 mph 20.7 mph N/A   Overcast
5:14 AM 23.4 °F 9.2 °F 16.5 °F 75% 29.95 in 10.0 mi NNW 18.4 mph 23.0 mph N/A   Overcast
5:35 AM 21.9 °F 7.3 °F 13.5 °F 70% 29.96 in 10.0 mi NNW 18.4 mph 23.0 mph N/A   Mostly Cloudy
5:54 AM 20.7 °F 7.6 °F 11.5 °F 68% 29.97 in 10.0 mi NNW 13.8 mph 19.6 mph N/A   Scattered Clouds
6:15 AM 20.3 °F 7.7 °F 10.9 °F 67% 29.97 in 10.0 mi NNW 12.7 mph 18.4 mph N/A   Scattered Clouds
6:35 AM 19.8 °F 8.3 °F 10.8 °F 68% 29.98 in 10.0 mi NNW 10.4 mph 18.4 mph N/A   Clear
6:54 AM 19.0 °F 7.5 °F 10.8 °F 70% 29.98 in 10.0 mi NNW 10.4 mph - N/A   Scattered Clouds
7:15 AM 18.5 °F 7.5 °F 11.1 °F 73% 29.98 in 10.0 mi NW 9.2 mph - N/A   Scattered Clouds
7:35 AM 18.3 °F 7.3 °F 11.3 °F 74% 29.99 in 10.0 mi NNW 9.2 mph - N/A   Clear
7:54 AM 18.3 °F 5.9 °F 11.7 °F 75% 30.00 in 10.0 mi NW 11.5 mph - N/A   Clear
8:15 AM 19.0 °F 7.5 °F 12.2 °F 75% 30.00 in 10.0 mi NNW 10.4 mph - N/A   Clear
8:35 AM 19.8 °F 7.7 °F 12.7 °F 74% 30.00 in 10.0 mi NNW 11.5 mph - N/A   Clear
8:54 AM 20.7 °F 8.8 °F 13.1 °F 73% 30.00 in 10.0 mi NW 11.5 mph - N/A   Clear
9:15 AM 21.6 °F 8.8 °F 13.5 °F 71% 30.00 in 10.0 mi NW 13.8 mph 20.7 mph N/A   Clear
9:35 AM 22.5 °F 9.9 °F 13.5 °F 68% 30.00 in 10.0 mi NNW 13.8 mph - N/A   Clear
9:54 AM 23.5 °F 9.0 °F 14.0 °F 67% 30.00 in 10.0 mi NW 19.6 mph - N/A   Clear
10:15 AM 24.4 °F 12.4 °F 14.4 °F 66% 29.99 in 10.0 mi NNW 13.8 mph 23.0 mph N/A   Clear
10:34 AM 25.2 °F 10.8 °F 14.4 °F 64% 29.99 in 10.0 mi NW 20.7 mph 24.2 mph N/A   Scattered Clouds
10:54 AM 25.3 °F 12.6 °F 13.8 °F 62% 29.99 in 10.0 mi NW 16.1 mph 25.3 mph N/A   Scattered Clouds
11:15 AM 26.2 °F 13.0 °F 13.8 °F 59% 29.98 in 10.0 mi NW 18.4 mph 21.9 mph N/A   Mostly Cloudy
11:34 AM 26.1 °F 12.7 °F 12.7 °F 57% 29.98 in 10.0 mi NW 18.4 mph 23.0 mph N/A   Mostly Cloudy
11:55 AM 26.1 °F 14.5 °F 12.6 °F 57% 29.96 in 10.0 mi North 13.8 mph 27.6 mph N/A   Mostly Cloudy
12:14 PM 28.2 °F 17.2 °F 12.7 °F 52% 29.96 in 10.0 mi NNW 13.8 mph 25.3 mph N/A   Overcast
12:34 PM 28.0 °F 16.1 °F 12.0 °F 51% 29.96 in 10.0 mi NNW 16.1 mph 23.0 mph N/A   Mostly Cloudy
12:55 PM 27.0 °F 13.5 °F 10.9 °F 51% 29.96 in 10.0 mi NW 19.6 mph 29.9 mph N/A   Mostly Cloudy
1:14 PM 27.7 °F 15.2 °F 10.9 °F 50% 29.96 in 10.0 mi NNW 17.3 mph 28.8 mph N/A   Overcast
1:35 PM 27.0 °F 13.2 °F 10.9 °F 51% 29.96 in 10.0 mi NW 20.7 mph 27.6 mph N/A   Mostly Cloudy
1:55 PM 28.0 °F 14.9 °F 11.5 °F 50% 29.97 in 10.0 mi NNW 19.6 mph 27.6 mph N/A   Overcast
2:14 PM 27.7 °F 15.2 °F 10.4 °F 48% 29.97 in 10.0 mi North 17.3 mph 24.2 mph N/A   Overcast
2:35 PM 29.1 °F 16.4 °F 10.9 °F 47% 29.97 in 10.0 mi NW 19.6 mph 23.0 mph N/A   Overcast
2:55 PM 27.7 °F 16.1 °F 11.3 °F 50% 29.98 in 10.0 mi NNW 15.0 mph 23.0 mph N/A   Overcast
3:14 PM 29.3 °F 17.0 °F 11.5 °F 47% 29.99 in 10.0 mi NNW 18.4 mph 24.2 mph N/A   Overcast
3:35 PM 28.6 °F 17.7 °F 10.8 °F 47% 30.00 in 10.0 mi NNW 13.8 mph 23.0 mph N/A   Scattered Clouds
3:54 PM 28.0 °F 16.1 °F 10.8 °F 48% 30.00 in 10.0 mi NW 16.1 mph 24.2 mph N/A   Clear
4:15 PM 27.0 °F 15.2 °F 10.2 °F 49% 30.01 in 10.0 mi NNW 15.0 mph 23.0 mph N/A   Clear
4:35 PM 26.6 °F 15.7 °F 10.4 °F 51% 30.03 in 10.0 mi NNW 12.7 mph - N/A   Scattered Clouds
4:54 PM 26.2 °F 15.8 °F 10.2 °F 51% 30.03 in 10.0 mi NNW 11.5 mph 17.3 mph N/A   Mostly Cloudy
5:15 PM 24.8 °F 16.1 °F 10.2 °F 54% 30.04 in 10.0 mi NNW 8.1 mph - N/A   Scattered Clouds
5:35 PM 24.4 °F 14.9 °F 10.6 °F 56% 30.06 in 10.0 mi NNW 9.2 mph - N/A   Mostly Cloudy
5:54 PM 25.0 °F 19.3 °F 10.8 °F 55% 30.06 in 10.0 mi NNW 4.6 mph - N/A   Overcast
6:15 PM 24.3 °F 18.4 °F 11.1 °F 57% 30.07 in 10.0 mi NNW 4.6 mph - N/A   Mostly Cloudy
6:34 PM 23.9 °F 18.0 °F 11.7 °F 60% 30.08 in 10.0 mi NNW 4.6 mph - N/A   Overcast
6:55 PM 24.1 °F 16.0 °F 11.5 °F 59% 30.08 in 10.0 mi NNW 6.9 mph - N/A   Overcast
7:15 PM 23.5 °F 17.6 °F 11.7 °F 61% 30.09 in 10.0 mi NNW 4.6 mph - N/A   Overcast
7:34 PM 22.6 °F 16.5 °F 11.5 °F 62% 30.10 in 10.0 mi NNW 4.6 mph - N/A   Mostly Cloudy
7:55 PM 22.6 °F 14.3 °F 11.3 °F 62% 30.11 in 10.0 mi NNW 6.9 mph - N/A   Mostly Cloudy
8:15 PM 21.9 °F 12.5 °F 10.8 °F 62% 30.11 in 10.0 mi NNW 8.1 mph - N/A   Scattered Clouds
8:34 PM 20.8 °F 13.2 °F 10.6 °F 65% 30.12 in 10.0 mi NW 5.8 mph - N/A   Clear
8:55 PM 20.7 °F 13.0 °F 10.2 °F 64% 30.12 in 10.0 mi NNW 5.8 mph - N/A   Clear
9:15 PM 19.6 °F 13.0 °F 9.7 °F 65% 30.12 in 10.0 mi NW 4.6 mph - N/A   Clear
9:34 PM 19.8 °F 11.9 °F 9.5 °F 64% 30.13 in 10.0 mi NW 5.8 mph - N/A   Clear
9:55 PM 19.0 °F 12.3 °F 9.0 °F 65% 30.14 in 10.0 mi NNW 4.6 mph - N/A   Clear
10:14 PM 17.8 °F - 9.0 °F 68% 30.15 in 10.0 mi Calm Calm - N/A   Clear
10:34 PM 18.5 °F 13.3 °F 9.3 °F 67% 30.15 in 10.0 mi West 3.5 mph - N/A   Clear
10:55 PM 18.7 °F 13.5 °F 9.7 °F 68% 30.16 in 10.0 mi West 3.5 mph - N/A   Clear
11:14 PM 16.9 °F - 8.4 °F 69% 30.16 in 10.0 mi Calm Calm - N/A   Clear
11:35 PM 16.9 °F - 9.1 °F 72% 30.17 in 10.0 mi Calm Calm - N/A   Clear
11:55 PM 17.8 °F - 9.5 °F 70% 30.17 in 10.0 mi Calm Calm - N/A   Mostly Cloudy